Flag for U.S.A. Weather past 2 weeks in Charleston, West Virginia, U.S.A.

Now
83 °F

Scattered clouds.


Feels Like: 86 °F
Forecast: 67 / 90 °F
Wind: No wind

Location: Yeager Airport

Current Time: Sep 3, 2015 at 8:09:24 PM

Latest Report: Sep 3, 2015 at 6:54 PM


Visibility: 10 mi

Pressure: 29.93 "Hg

Humidity: 63%

Dew point: 69 °F

Location of CharlestonLocation

Historic Weather in Charleston — Graph

°F

Charleston temperature yesterday

Maximum temperature yesterday: 89 °F (at 4:54 PM)
Minimum temperature yesterday: 65 °F (at 6:54 AM)
Average temperature yesterday: 76 °F

Past Weeks' High & Low Weather Summary

 TemperatureHumidityPressure
High90 °F (Sep 1, 4:54 PM)97% (Aug 19, 10:54 PM)30.19 "Hg (Aug 19, 10:54 PM)
Low54 °F (Aug 28, 5:54 AM)39% (Aug 31, 5:54 PM)29.82 "Hg (Aug 20, 3:54 AM)
Average71 °F76%30.05 "Hg
* Reported Aug 19 6:54 PM — Sep 3 6:54 PM, Charleston, Weather by CustomWeather, © 2015

Note: Actual official high and low records may vary slightly from our data, if they occured in-between our weather recording intervals... More about our weather records

Advertising

Charleston weather history for previous 24 hours

 ConditionsComfort  
Time TempWeatherWind HumidityBarometerVisibility
6:54 PM
Thu, Sep 3
83 °FScattered clouds.No wind63%29.93 "Hg10 mi
5:54 PM88 °FScattered clouds.3 mph46%29.92 "Hg10 mi
4:54 PM89 °FScattered clouds.7 mph45%29.93 "Hg10 mi
3:54 PM89 °FScattered clouds.5 mph43%29.94 "Hg10 mi
2:54 PM85 °FScattered clouds.No wind51%29.96 "Hg10 mi
1:54 PM83 °FScattered clouds.No wind57%29.98 "Hg10 mi
12:54 PM80 °FBroken clouds.No wind69%30.01 "Hg7 mi
11:54 AM78 °FBroken clouds.3 mph71%30.03 "Hg7 mi
10:54 AM75 °FBroken clouds.No wind76%30.03 "Hg7 mi
9:54 AM72 °FBroken clouds.No wind84%30.04 "Hg7 mi
8:54 AM68 °FBroken clouds.No wind96%30.03 "Hg7 mi
7:54 AM66 °FFog.No wind96%30.02 "Hg5 mi
6:54 AM66 °FFog.No wind96%29.99 "Hg4 mi
5:54 AM66 °FFog.No wind96%29.99 "Hg4 mi
4:54 AM67 °FFog.No wind93%29.98 "Hg4 mi
3:54 AM67 °FFog.3 mph97%29.99 "Hg5 mi
2:54 AM67 °FFog.No wind97%29.98 "Hg5 mi
1:54 AM69 °FFog.No wind93%30.00 "Hg6 mi
12:54 AM70 °FFog.No wind90%30.00 "Hg6 mi
11:54 PM
Wed, Sep 2
70 °FFog.No wind90%30.01 "Hg6 mi
10:54 PM71 °FFog.No wind90%30.02 "Hg6 mi
9:54 PM74 °FClear.No wind85%30.01 "Hg7 mi
8:54 PM76 °FPassing clouds.No wind80%30.00 "Hg7 mi
Weather by CustomWeather, © 2015

See weather overviewHow to use our weather pages